Total_Precipitation_Accumulation
0.00 0.00 0.01 0.01 0.04 0.08 0.10 0.12 0.16 0.18 0.19 0.25 0.36 0.58 0.79 0.90 1.09 1.22 1.20 1.33 1.74 2.13 2.44 2.71 2.86 3.09 3.41 3.71 3.96 4.23 4.61 4.71 4.46 4.39 4.33 4.21 3.89 3.74 3.42 3.03 2.67 2.57 2.57 2.73
0.00 0.01 0.01 0.01 0.02 0.05 0.06 0.08 0.15 0.18 0.21 0.28 0.33 0.54 0.75 0.78 0.98 1.12 1.22 1.40 1.57 1.78 2.26 2.53 2.55 2.79 3.03 3.54 4.02 4.34 4.33 4.21 3.94 4.03 4.32 4.54 4.50 4.02 3.43 3.07 2.92 2.57 2.48 2.56
0.01 0.02 0.01 0.01 0.02 0.02 0.07 0.10 0.15 0.18 0.21 0.32 0.41 0.83 0.97 0.87 0.95 1.05 1.14 1.31 1.45 1.63 1.82 2.14 2.17 2.26 2.48 2.97 3.47 3.60 3.45 3.37 3.22 3.28 3.59 3.81 4.04 3.78 3.41 3.10 2.86 2.57 2.45 2.39
0.01 0.02 0.01 0.02 0.02 0.03 0.06 0.06 0.07 0.13 0.25 0.44 0.49 0.95 1.19 1.20 1.25 1.10 1.14 1.20 1.46 1.61 1.66 1.82 1.88 1.93 1.98 2.11 2.36 2.53 2.71 2.78 2.77 2.80 2.98 3.19 3.35 3.28 3.12 3.00 2.76 2.51 2.26 2.17
0.02 0.02 0.02 0.03 0.04 0.03 0.05 0.05 0.06 0.12 0.22 0.44 0.48 0.68 1.15 1.43 1.44 1.19 1.14 1.15 1.29 1.31 1.39 1.53 1.61 1.62 1.68 1.82 2.03 2.24 2.53 2.66 2.71 2.67 2.76 2.97 3.23 3.20 2.94 2.72 2.66 2.49 2.27 2.03
0.03 0.04 0.05 0.04 0.04 0.04 0.05 0.07 0.13 0.20 0.31 0.71 0.61 0.68 1.09 1.31 1.17 1.12 1.04 0.98 1.05 1.04 1.18 1.38 1.49 1.54 1.57 1.65 1.88 2.10 2.31 2.27 2.33 2.41 2.44 2.46 2.56 2.65 2.53 2.40 2.33 2.17 2.00 1.85
0.12 0.11 0.09 0.06 0.06 0.06 0.08 0.14 0.50 0.90 1.08 1.05 0.64 0.73 1.19 1.09 0.92 0.94 0.94 0.96 1.03 1.02 1.01 1.18 1.36 1.37 1.50 1.60 1.71 1.84 1.94 1.97 1.98 2.05 2.00 1.96 2.03 2.19 2.16 2.07 2.06 1.99 1.77 1.61
0.21 0.24 0.16 0.09 0.08 0.09 0.13 0.22 0.64 0.93 0.92 0.91 0.76 1.14 1.35 0.95 0.87 0.84 0.75 0.76 0.79 0.76 0.74 0.84 1.00 1.11 1.24 1.39 1.47 1.56 1.61 1.75 1.86 1.93 1.95 1.91 1.88 1.95 2.03 2.07 1.94 1.87 1.61 1.45
0.14 0.16 0.11 0.08 0.07 0.11 0.21 0.28 0.31 0.52 0.63 0.96 1.15 1.36 1.21 0.92 0.87 0.80 0.82 0.79 0.78 0.72 0.69 0.71 0.80 0.90 0.95 1.05 1.15 1.23 1.35 1.53 1.70 1.70 1.83 1.81 1.68 1.76 1.93 2.01 1.94 1.86 1.80 1.67
0.07 0.09 0.11 0.08 0.10 0.15 0.17 0.21 0.29 0.43 0.66 0.97 1.17 1.46 1.62 1.42 1.20 1.02 1.06 0.95 0.83 0.72 0.66 0.66 0.66 0.68 0.66 0.76 1.00 1.11 1.26 1.43 1.48 1.46 1.43 1.36 1.41 1.58 1.73 1.73 1.66 1.79 1.86 1.87
0.07 0.07 0.10 0.13 0.14 0.16 0.19 0.22 0.29 0.37 0.45 0.75 1.16 1.33 1.12 1.19 1.17 1.15 1.01 0.94 0.89 0.78 0.64 0.62 0.68 0.70 0.68 0.72 0.94 0.97 1.04 1.24 1.29 1.26 1.17 1.15 1.21 1.31 1.40 1.43 1.45 1.61 1.69 1.77
0.08 0.09 0.15 0.20 0.17 0.15 0.18 0.21 0.31 0.48 0.51 0.61 0.92 1.14 0.81 0.88 0.88 0.81 0.76 0.75 0.67 0.64 0.58 0.57 0.66 0.77 0.87 0.94 0.93 0.86 0.87 0.93 1.07 1.11 1.08 1.09 1.11 1.10 1.10 1.13 1.24 1.35 1.43 1.47
0.11 0.15 0.28 0.49 0.49 0.30 0.24 0.20 0.24 0.32 0.41 0.48 0.75 1.05 0.88 0.85 0.89 0.83 0.81 0.80 0.69 0.63 0.60 0.64 0.73 0.75 0.77 0.90 1.01 0.89 0.87 0.93 1.04 1.07 1.10 1.16 1.15 1.09 1.03 1.06 1.12 1.14 1.12 1.16
0.10 0.12 0.24 0.48 0.44 0.34 0.30 0.27 0.28 0.33 0.43 0.46 0.52 0.80 0.93 0.94 0.91 0.87 0.83 0.75 0.74 0.69 0.60 0.63 0.74 0.86 0.84 0.82 0.93 0.87 0.85 0.90 1.01 1.17 1.36 1.36 1.27 1.18 1.10 1.04 1.06 1.07 1.03 1.09
0.11 0.10 0.12 0.18 0.23 0.30 0.32 0.27 0.26 0.27 0.31 0.46 0.44 0.57 0.82 0.91 0.83 0.86 0.86 0.66 0.60 0.69 0.66 0.60 0.69 0.85 0.91 0.90 0.89 0.85 0.89 0.94 1.06 1.30 1.42 1.42 1.37 1.28 1.22 1.14 1.11 1.08 1.12 1.13
0.19 0.18 0.19 0.19 0.26 0.31 0.32 0.28 0.23 0.20 0.20 0.27 0.34 0.54 0.64 0.61 0.68 0.73 0.69 0.65 0.67 0.78 0.74 0.67 0.67 0.71 0.84 0.90 0.93 0.96 1.02 1.08 1.13 1.16 1.22 1.31 1.38 1.38 1.32 1.16 1.10 1.17 1.20 1.19
0.33 0.33 0.30 0.30 0.30 0.36 0.41 0.32 0.26 0.23 0.20 0.26 0.45 0.66 0.65 0.62 0.70 0.64 0.56 0.55 0.68 0.76 0.69 0.64 0.67 0.70 0.77 0.79 0.85 1.02 1.04 0.99 0.99 1.08 1.16 1.25 1.31 1.29 1.23 1.11 1.11 1.15 1.15 1.18
0.31 0.40 0.39 0.40 0.51 0.64 0.43 0.26 0.25 0.28 0.25 0.23 0.34 0.48 0.55 0.53 0.56 0.58 0.52 0.50 0.51 0.55 0.57 0.58 0.64 0.71 0.74 0.70 0.66 0.72 0.81 0.87 0.90 0.97 1.07 1.15 1.21 1.28 1.32 1.28 1.20 1.24 1.26 1.22
0.29 0.43 0.48 0.53 0.67 0.56 0.37 0.33 0.35 0.39 0.42 0.34 0.38 0.44 0.54 0.57 0.59 0.67 0.57 0.52 0.49 0.45 0.48 0.59 0.71 0.70 0.69 0.67 0.64 0.70 0.84 0.94 1.01 1.03 1.10 1.13 1.21 1.36 1.42 1.33 1.30 1.35 1.32 1.24
0.35 0.43 0.59 0.64 0.81 0.76 0.57 0.42 0.38 0.48 0.84 0.59 0.47 0.47 0.57 0.63 0.73 0.81 0.64 0.58 0.54 0.50 0.49 0.54 0.57 0.55 0.59 0.69 0.77 0.86 1.01 1.16 1.19 1.14 1.17 1.25 1.32 1.43 1.53 1.56 1.55 1.49 1.45 1.37
0.74 0.68 0.63 0.73 0.88 0.76 0.56 0.46 0.52 0.90 1.10 0.75 0.63 0.59 0.64 0.74 0.73 0.70 0.64 0.56 0.54 0.56 0.57 0.58 0.62 0.64 0.67 0.71 0.89 1.08 1.16 1.21 1.23 1.23 1.24 1.34 1.43 1.57 1.74 1.90 1.84 1.78 1.71 1.68
0.96 0.99 0.93 0.97 1.13 1.12 0.69 0.58 0.86 1.07 0.86 0.80 0.79 0.76 0.72 0.65 0.59 0.58 0.62 0.59 0.55 0.57 0.65 0.71 0.80 0.83 0.75 0.75 0.89 1.07 1.16 1.20 1.31 1.33 1.39 1.44 1.56 1.62 1.77 2.11 2.12 2.13 2.11 1.96
1.07 1.18 1.27 1.27 1.26 1.02 0.91 0.96 0.99 1.03 0.92 0.86 0.72 0.64 0.62 0.62 0.62 0.66 0.75 0.75 0.66 0.60 0.67 0.73 0.83 0.90 0.91 0.97 1.07 1.23 1.29 1.35 1.42 1.54 1.64 1.70 1.76 1.88 1.98 2.11 2.15 2.18 2.17 2.06
1.04 0.97 1.27 1.42 1.32 1.19 1.06 0.97 1.02 1.17 1.05 0.86 0.72 0.67 0.67 0.67 0.61 0.59 0.64 0.69 0.68 0.66 0.72 0.78 0.83 1.03 1.16 1.20 1.25 1.33 1.41 1.54 1.69 1.83 1.92 1.97 1.98 1.99 2.04 2.18 2.16 2.16 2.16 2.08
0.94 0.97 1.29 1.53 1.49 1.48 1.28 1.00 0.93 0.96 0.89 0.76 0.75 0.73 0.73 0.76 0.70 0.62 0.60 0.62 0.68 0.77 0.84 0.90 1.00 1.13 1.19 1.28 1.38 1.47 1.63 1.80 1.89 1.92 1.95 1.95 1.99 2.11 2.19 2.17 2.15 2.19 2.24 2.20
1.09 1.08 1.36 1.66 1.49 1.47 1.37 1.10 0.96 0.84 0.75 0.71 0.84 0.88 0.80 0.79 0.79 0.73 0.69 0.71 0.76 0.83 0.94 1.03 1.11 1.20 1.25 1.40 1.58 1.70 1.84 2.03 2.19 2.14 2.08 2.10 2.15 2.21 2.22 2.19 2.11 2.15 2.09 2.01